Other Public Products
Issued by NWS Grand Forks, ND

Home | Current Version | Previous Version | Graphics & Text | Print | Product List | Glossary On
Versions: 1 2 3 4 5 6 7 8 9 10 11 12 13 14 15 16 17 18 19 20 21 22 23 24 25 26 27 28 29 30 31 32 33 34 35 36 37 38 39 40 41 42 43 44 45 46 47 48 49 50
000
FPUS83 KFGF 221631
OPUFGF
PRAIRIE TO PINES WEATHER ROUNDUP
NATIONAL WEATHER SERVICE EASTERN NORTH DAKOTA/GRAND FORKS ND
1100 AM CDT SUN OCT 22 2017

 **SATELLITE DATA USED TO AUGMENT SKY COVER AT AUTOMATED STATIONS**
 *****  WEATHER ACROSS EASTERN NORTH DAKOTA  *****

CITY           SKY/WX    TMP DP  RH WIND       PRES   REMARKS
GRAND FORKS    FAIR      53  34  48 SW12      29.82F
GRAND FORKS AF FAIR      53  31  43 W12       29.82S
GRAND CITY NWS NOT AVBL
BUXTON           N/A     54  36  50 SW9         N/A
DEVILS LAKE    FAIR      46  33  60 SW14      29.79F
FARGO          FAIR      50  34  54 SW13      29.89S
WAHPETON ARPT  NOT AVBL
$$

 *****  WEATHER ACROSS CENTRAL AND WESTERN NORTH DAKOTA  *****

CITY           SKY/WX    TMP DP  RH WIND       PRES   REMARKS
JAMESTOWN      FAIR      52  30  43 SW10      29.85F
BISMARCK       FAIR      50  27  40 SW7       29.84F
MINOT          FAIR      49  29  46 S13       29.71F
MINOT AFB      FAIR      49  27  42 SW13      29.69F
GARRISON         N/A     47  28  47 SW14      29.76F
WILLISTON      CLOUDY    40  27  59 SW7       29.70F
DICKINSON      CLOUDY    50  21  32 SW20G28   29.76S
HETTINGER      PTSUNNY   50  20  30 SW16      29.85F
$$

 *****  OTHER OBSERVATIONS NORTHEAST NORTH DAKOTA  *****

CITY           SKY/WX    TMP DP  RH WIND       PRES   REMARKS
WALHALLA       FAIR     N/A N/A N/A W9G18     29.74F
LANGDON        NOT AVBL
CAVALIER       FAIR      52  36  54 SW14      29.76S
GRAFTON        NOT AVBL
CANDO          FAIR      50  32  50 SW13      29.77F
FORT TOTTEN      N/A     47  30  51 SW8       29.95S
ROLLA          FAIR      41  30  65 SW16G22   29.72F
RUGBY          NOT AVBL
 ***** THE ABOVE OBSERVATIONS ARE NON NWS ARE NOT QUALITY
        CONTROLLED AND MAY MIS-REPORT RAIN FOR SNOW...
$$

 *****  OTHER OBSERVATIONS SOUTHEAST NORTH DAKOTA *****

CITY           SKY/WX    TMP DP  RH WIND       PRES   REMARKS
COOPERSTOWN    FAIR      52  30  43 SW13      29.84F
VALLEY CITY    NOT AVBL
OAKES          NOT AVBL
GWINNER          N/A     52  34  50 SW10      29.91F
SHEYENNE NWR     N/A     50  34  54 SW10      29.95S
BUFFALO          N/A     53  28  39 SE12        N/A
WYNDMERE       NOT AVBL
 ***** THE ABOVE OBSERVATIONS ARE NON NWS ARE NOT QUALITY
       CONTROLLED AND MAY MIS-REPORT RAIN FOR SNOW...
$$

  *****  WEATHER ACROSS NORTHERN MINNESOTA  *****

CITY           SKY/WX    TMP DP  RH WIND       PRES   REMARKS
FLAG ISLAND    FAIR      46  36  66 SW18G24   29.69R
WARROAD        FAIR      48  37  66 W17G24    29.75S
ROSEAU         FAIR      50  37  62 W16G28    29.76R
HALLOCK        FAIR      52  34  50 W18       29.77R
THF RVR FALLS  FAIR      50  34  54 W18       29.83S
HALSTAD          N/A     54  34  47 SW14        N/A
FOSSTON        FAIR      50  32  50 SW15      29.86S
BAUDETTE       FAIR      50  37  61 W18G30    29.73F
WASKISH        FAIR      50  37  62 SW18G28   29.81R
CROOKSTON      FAIR      52  34  50 W13       29.84F
$$
  *****  WEATHER ACROSS CENTRAL AND WEST MINNESOTA  *****

CITY           SKY/WX    TMP DP  RH WIND       PRES   REMARKS
BEMIDJI        FAIR      51  33  50 W24G30    29.86R
PARK RAPIDS    FAIR      52  36  54 W12G21    29.89R
WADENA         FAIR      52  36  54 W13       29.91R
DETROIT LAKES  FAIR      52  34  50 W10       29.90S
MOORHEAD       FAIR      52  34  50 SW8       29.90F
FERGUS FALLS   FAIR      52  36  54 W8        29.95R
ELBOW LAKE     FAIR      52  37  56 SW9       29.96R
MORRIS MN      FAIR      55  37  50 W12       29.96S
STAPLES        FAIR      54  34  47 SW14      29.92R
WHEATON        FAIR      54  34  47 SW12      29.96F
$$
  *****  WEATHER ELSEWHERE ACROSS MINNESOTA  *****

CITY           SKY/WX    TMP DP  RH WIND       PRES   REMARKS
DULUTH         FAIR      47  41  80 W15       29.88R
INTRNTL FALLS  FAIR      50  37  61 SW15G28   29.76R
ELY            FAIR      48  37  66 SW12G21   29.82R
CLOQUET        FAIR      48  37  66 SW7       29.90R
BRAINERD       FAIR     N/A N/A N/A SW14      29.92R
HIBBING        FAIR      45  38  76 VRB7      29.85R
ALEXANDRIA     FAIR      51  36  56 W12       29.96R
SAINT CLOUD    FAIR      53  41  63 W10       29.97R
MINNEAPOLIS    PTSUNNY   50  42  74 SW8       30.01R
$$

  *****  WEATHER ACROSS SOUTH DAKOTA  *****

CITY           SKY/WX    TMP DP  RH WIND       PRES   REMARKS
SIOUX FALLS    FAIR      56  38  50 SW6       30.05S
BROOKINGS      FAIR      51  37  58 S7        30.02F
WATERTOWN      FAIR      52  35  52 SW15      29.98S
HURON          FAIR      55  34  45 S12       29.99F
SISSETON         N/A     56  33  42 SW16      29.94S
ABERDEEN       FAIR      49  36  61 S9        29.95F
MITCHELL       FAIR      57  33  40 S9        30.03F
PIERRE         FAIR      46  32  58 SW5       29.94F
MOBRIDGE       FAIR      47  30  51 S9        29.89S
RAPID CITY     FAIR      48  22  35 VRB6      29.95R
$$

  *****  SOME WEATHER IN NEARBY STATES *****

CITY           SKY/WX    TMP DP  RH WIND       PRES   REMARKS
GLASGOW MT     LGT RAIN  48  36  63 SW7       29.63F
GREAT FALLS MT FAIR      54  35  48 SW26G40   29.73S
CHEYENNE WY    FAIR      52  22  30 W30G39    30.17R
SCOTTSBLUFF NE FAIR      58  26  29 W18G32    30.09F
OMAHA NE       FAIR      54  40  59 SE3       30.12S
DES MOINES IA  FAIR      54  43  66 NW7       30.08R
DAVENPORT IA   LGT RAIN  53  50  89 NW10      30.02R
CHICAGO IL     LGT RAIN  66  61  84 S13       29.94S
EAU CLAIRE WI  PTSUNNY   51  43  74 W7        29.98R
LA CROSSE WI   CLOUDY    54  46  74 W7        30.01R
$$

  *****  SOME NATIONAL WEATHER *****

CITY           SKY/WX    TMP DP  RH WIND       PRES   REMARKS
LA GUARDIA NY  PTSUNNY   74  46  36 SE5       30.39F
RALEIGH NC     FAIR      73  57  57 SE7       30.37F
ATLANTA GA     FAIR      74  65  73 SE12G18   30.25F
NEW ORLEANS LA PTSUNNY   82  76  81 S7        30.04R
OKLAHOMA CITY  FAIR      59  45  59 NW13      30.22R
ALBUQUERQUE NM FAIR      51   5  15 CALM      30.43R
SALT LAKE CITY PTSUNNY   53  24  32 SE12      30.37S
LOS ANGELES CA FAIR      77  32  19 N6        30.12R
BOISE ID       CLOUDY    48  40  73 SE13      30.25R
SEATTLE WA     PTSUNNY   54  49  83 S16       30.06R
$$

*** WEATHER ACROSS MANITOBA...SASKATCHEWAN AND ONTARIO ***
                ***ONTARIO***

CITY           SKY/WX    TMP DP  RH WIND       PRES   REMARKS
GERALDTON      LGT RAIN  55  54  94 SW14G24   29.70R FOG
THUNDER BAY    CLOUDY    54  41  62 W15G26    29.77R
SIOUX LOOKOUT  LGT RAIN  45  41  87 SW14G23   29.61R
TORONTO        PTSUNNY   70  54  56 S7        30.23F
BIG TROUT LK   PTSUNNY   50  45  81 SW14G20   29.34S
PICKLE LAKE    DRIZZLE   46  45  93 S20G25    29.51F
DRYDEN         CLOUDY    45  41  87 W21G28    29.64R
KENORA         CLOUDY    45  39  81 SW20G26   29.64R
$$
                *** MANITOBA***

CITY           SKY/WX    TMP DP  RH WIND       PRES   REMARKS
BRANDON        MOSUNNY   43  34  70 SW13      29.66F
DAUPHIN        SUNNY     46  34  61 W17G23    29.57S
ISLAND LAKE    LGT RAIN  41  37  87 SW10G26   29.27S
PILOT MOUND      N/A     46  34  61 SW13        N/A
THE PAS        CLOUDY    37  36  93 W12G18    29.44F
THOMPSON       LGT SNOW  34  32  93 W10       29.18F FOG
WINNIPEG       MOSUNNY   46  36  66 W17G29    29.68R
CHURCHILL      CLOUDY    37  37 100 N13       29.10F FOG
GILLAM         LGT RAIN  41  39  93 SW14      29.09F
$$
                ***SASKATCHEWAN***

CITY           SKY/WX    TMP DP  RH WIND       PRES   REMARKS
ESTEVAN        CLOUDY    39  27  60 SW14      29.65F
KINDERSLEY     MOSUNNY   41  32  70 S10       29.38R
LLOYDMINSTER   PTSUNNY   30  28  93 E5        29.38F
PRINCE ALBERT  FOG       30  28  93 E7        29.52F VSB 3/8 WCI  23
REGINA         CLOUDY    37  30  75 SE10      29.53F
YORKTON        SUNNY     37  32  81 S8        29.57S
N. BATTLEFORD  MOSUNNY   32  28  86 E9        29.42F W


USA.gov is the U.S. government's official web portal to all federal, state and local government web resources and services.